• In Moldova, Republic
  • List of Countries
  • For 7 days
  • Water Temperature
  • Satellite Maps
  • Weather Map
  • Weather Widgets
  • user-avatar
    Login

    Hourly Weather Durres

    Today, 21 August, Monday

    Time Temperature Precipitation Wind Pressure Humidity
    00:00 +25°C° 1.7 mm 3 mps 758 mmHg 73%
    01:00 +25°C° 0 mm 3 mps 757 mmHg 75%
    02:00 +24°C° 0.7 mm 3 mps 757 mmHg 78%
    03:00 +24°C° 0.7 mm 3 mps 757 mmHg 81%
    04:00 +24°C° 0.7 mm 3 mps 757 mmHg 84%
    05:00 +25°C° 0 mm 3 mps 757 mmHg 78%
    06:00 +26°C° 0 mm 3 mps 757 mmHg 72%
    07:00 +27°C° 0 mm 3 mps 757 mmHg 67%
    08:00 +29°C° 0 mm 3 mps 757 mmHg 58%
    09:00 +31°C° 0 mm 3 mps 757 mmHg 50%
    10:00 +33°C° 0 mm 3 mps 757 mmHg 41%
    11:00 +34°C° 0 mm 4 mps 757 mmHg 39%
    12:00 +34°C° 0 mm 4 mps 757 mmHg 37%
    13:00 +35°C° 0 mm 5 mps 757 mmHg 34%
    14:00 +35°C° 0 mm 6 mps 757 mmHg 35%
    15:00 +34°C° 0 mm 7 mps 757 mmHg 35%
    16:00 +34°C° 0 mm 7 mps 757 mmHg 36%
    17:00 +32°C° 0 mm 7 mps 757 mmHg 42%
    18:00 +28°C° 0 mm 7 mps 757 mmHg 48%
    19:00 +26°C° 0 mm 7 mps 757 mmHg 54%
    20:00 +24°C° 0 mm 7 mps 758 mmHg 57%
    21:00 +24°C° 0 mm 6 mps 758 mmHg 60%
    22:00 +23°C° 0 mm 6 mps 758 mmHg 62%
    23:00 +22°C° 0 mm 6 mps 759 mmHg 62%

    Tomorrow, 22 August, Tuesday

    Time Temperature Precipitation Wind Pressure Humidity
    00:00 +22°C° 0 mm 6 mps 759 mmHg 62%
    01:00 +21°C° 0 mm 6 mps 759 mmHg 62%
    02:00 +21°C° 0 mm 6 mps 759 mmHg 61%
    03:00 +20°C° 0 mm 6 mps 759 mmHg 60%
    04:00 +20°C° 0 mm 6 mps 759 mmHg 59%
    05:00 +21°C° 0 mm 6 mps 759 mmHg 54%
    06:00 +22°C° 0 mm 6 mps 760 mmHg 48%
    07:00 +23°C° 0 mm 6 mps 760 mmHg 43%
    08:00 +26°C° 0 mm 6 mps 760 mmHg 37%
    09:00 +28°C° 0 mm 6 mps 760 mmHg 32%
    10:00 +30°C° 0 mm 5 mps 760 mmHg 27%
    11:00 +32°C° 0 mm 6 mps 760 mmHg 25%
    12:00 +33°C° 0 mm 6 mps 760 mmHg 22%
    13:00 +35°C° 0 mm 6 mps 759 mmHg 20%
    14:00 +34°C° 0 mm 7 mps 759 mmHg 20%
    15:00 +34°C° 0 mm 8 mps 759 mmHg 20%
    16:00 +34°C° 0 mm 8 mps 759 mmHg 21%
    17:00 +31°C° 0 mm 8 mps 759 mmHg 29%
    18:00 +27°C° 0 mm 7 mps 759 mmHg 37%
    19:00 +23°C° 0 mm 7 mps 759 mmHg 45%
    20:00 +23°C° 0 mm 6 mps 760 mmHg 45%
    21:00 +22°C° 0 mm 6 mps 760 mmHg 45%
    22:00 +21°C° 0 mm 5 mps 760 mmHg 44%
    23:00 +21°C° 0 mm 5 mps 760 mmHg 43%

    Day after tomorrow, 23 August, Wednesday

    Time Temperature Precipitation Wind Pressure Humidity
    00:00 +21°C° 0 mm 4 mps 760 mmHg 43%
    01:00 +20°C° 0 mm 4 mps 760 mmHg 42%
    02:00 +20°C° 0 mm 3 mps 760 mmHg 42%
    03:00 +20°C° 0 mm 3 mps 760 mmHg 43%
    04:00 +19°C° 0 mm 3 mps 760 mmHg 43%
    05:00 +21°C° 0 mm 3 mps 760 mmHg 41%
    06:00 +24°C° 0 mm 3 mps 761 mmHg 39%
    07:00 +25°C° 0 mm 2 mps 761 mmHg 36%
    08:00 +28°C° 0 mm 2 mps 761 mmHg 31%
    09:00 +30°C° 0 mm 2 mps 761 mmHg 26%
    10:00 +34°C° 0 mm 2 mps 761 mmHg 21%
    11:00 +34°C° 0 mm 3 mps 761 mmHg 20%
    12:00 +35°C° 0 mm 4 mps 761 mmHg 19%
    13:00 +35°C° 0 mm 5 mps 761 mmHg 17%
    14:00 +35°C° 0 mm 5 mps 760 mmHg 20%
    15:00 +34°C° 0 mm 5 mps 760 mmHg 22%
    16:00 +33°C° 0 mm 6 mps 760 mmHg 24%
    17:00 +30°C° 0 mm 5 mps 761 mmHg 33%
    18:00 +27°C° 0 mm 4 mps 761 mmHg 42%
    19:00 +24°C° 0 mm 3 mps 761 mmHg 51%
    20:00 +24°C° 0 mm 3 mps 761 mmHg 49%
    21:00 +22°C° 0 mm 3 mps 762 mmHg 47%
    22:00 +23°C° 0 mm 2 mps 762 mmHg 45%
    23:00 +23°C° 0 mm 2 mps 762 mmHg 43%

    24 August, Thursday

    Time Temperature Precipitation Wind Pressure Humidity
    00:00 +21°C° 0 mm 2 mps 762 mmHg 41%
    01:00 +21°C° 0 mm 2 mps 762 mmHg 38%
    02:00 +21°C° 0 mm 2 mps 762 mmHg 38%
    03:00 +21°C° 0 mm 2 mps 762 mmHg 38%
    04:00 +20°C° 0 mm 2 mps 762 mmHg 38%
    05:00 +23°C° 0 mm 2 mps 762 mmHg 36%
    06:00 +25°C° 0 mm 2 mps 762 mmHg 34%
    07:00 +26°C° 0 mm 3 mps 762 mmHg 33%
    08:00 +29°C° 0 mm 2 mps 762 mmHg 28%
    09:00 +32°C° 0 mm 2 mps 762 mmHg 24%
    10:00 +35°C° 0 mm 2 mps 762 mmHg 20%
    11:00 +36°C° 0 mm 3 mps 762 mmHg 19%
    12:00 +37°C° 0 mm 4 mps 762 mmHg 18%
    13:00 +37°C° 0 mm 4 mps 762 mmHg 17%
    14:00 +37°C° 0 mm 5 mps 762 mmHg 18%
    15:00 +36°C° 0 mm 5 mps 761 mmHg 19%
    16:00 +36°C° 0 mm 6 mps 761 mmHg 20%
    17:00 +33°C° 0 mm 5 mps 761 mmHg 27%
    18:00 +29°C° 0 mm 4 mps 762 mmHg 34%
    19:00 +26°C° 0 mm 4 mps 762 mmHg 41%
    20:00 +25°C° 0 mm 3 mps 762 mmHg 39%
    21:00 +25°C° 0 mm 3 mps 762 mmHg 37%
    22:00 +25°C° 0 mm 2 mps 763 mmHg 36%
    23:00 +25°C° 0 mm 2 mps 762 mmHg 34%

    25 August, Friday

    Time Temperature Precipitation Wind Pressure Humidity
    00:00 +24°C° 0 mm 2 mps 762 mmHg 33%
    01:00 +24°C° 0 mm 2 mps 762 mmHg 31%
    02:00 +24°C° 0 mm 2 mps 762 mmHg 30%
    03:00 +24°C° 0 mm 2 mps 762 mmHg 30%
    04:00 +23°C° 0 mm 2 mps 762 mmHg 29%
    05:00 +25°C° 0 mm 2 mps 762 mmHg 28%
    06:00 +27°C° 0 mm 2 mps 762 mmHg 27%
    07:00 +28°C° 0 mm 2 mps 763 mmHg 26%
    08:00 +31°C° 0 mm 2 mps 763 mmHg 22%
    09:00 +35°C° 0 mm 2 mps 763 mmHg 19%
    10:00 +37°C° 0 mm 1 mps 762 mmHg 16%
    11:00 +38°C° 0 mm 2 mps 762 mmHg 15%
    12:00 +39°C° 0 mm 3 mps 762 mmHg 15%
    13:00 +40°C° 0 mm 4 mps 762 mmHg 15%
    14:00 +40°C° 0 mm 4 mps 761 mmHg 16%
    15:00 +38°C° 0 mm 4 mps 761 mmHg 17%
    16:00 +37°C° 0 mm 4 mps 761 mmHg 19%
    17:00 +34°C° 0 mm 4 mps 761 mmHg 26%
    18:00 +30°C° 0 mm 3 mps 761 mmHg 32%
    19:00 +27°C° 0 mm 3 mps 761 mmHg 39%
    20:00 +27°C° 0 mm 2 mps 761 mmHg 38%
    21:00 +27°C° 0 mm 2 mps 762 mmHg 36%
    22:00 +26°C° 0 mm 2 mps 762 mmHg 35%
    23:00 +26°C° 0 mm 1 mps 762 mmHg 33%

    26 August, Saturday

    Time Temperature Precipitation Wind Pressure Humidity
    00:00 +26°C° 0 mm 1 mps 762 mmHg 32%
    01:00 +25°C° 0 mm 1 mps 762 mmHg 30%
    02:00 +25°C° 0 mm 1 mps 762 mmHg 30%
    03:00 +25°C° 0 mm 1 mps 762 mmHg 30%
    04:00 +24°C° 0 mm 1 mps 762 mmHg 29%
    05:00 +26°C° 0 mm 1 mps 762 mmHg 29%
    06:00 +27°C° 0 mm 2 mps 762 mmHg 28%
    07:00 +29°C° 0 mm 2 mps 762 mmHg 27%
    08:00 +32°C° 0 mm 1 mps 762 mmHg 23%
    09:00 +35°C° 0 mm 1 mps 762 mmHg 20%
    10:00 +37°C° 0 mm 1 mps 762 mmHg 16%
    11:00 +39°C° 0 mm 2 mps 761 mmHg 15%
    12:00 +40°C° 0 mm 3 mps 761 mmHg 14%
    13:00 +41°C° 0 mm 4 mps 760 mmHg 14%
    14:00 +40°C° 0 mm 4 mps 760 mmHg 15%
    15:00 +40°C° 0 mm 4 mps 760 mmHg 17%
    16:00 +38°C° 0 mm 4 mps 760 mmHg 18%
    17:00 +35°C° 0 mm 3 mps 760 mmHg 24%
    18:00 +31°C° 0 mm 3 mps 760 mmHg 31%
    19:00 +27°C° 0 mm 2 mps 760 mmHg 38%
    20:00 +27°C° 0 mm 2 mps 761 mmHg 36%
    21:00 +27°C° 0 mm 2 mps 761 mmHg 34%
    22:00 +27°C° 0 mm 1 mps 761 mmHg 33%
    23:00 +27°C° 0 mm 1 mps 761 mmHg 32%
    Show more